Regional Weather Roundup
Issued by NWS

Home | Current Version | Previous Version | Graphics & Text | Print | Product List | Glossary Off
Versions: 1 2 3 4 5 6 7 8 9 10 11 12 13 14 15 16 17 18 19 20 21 22 23 24 25 26 27 28 29 30 31 32 33 34 35 36 37 38 39 40 41 42 43 44 45 46 47 48 49 50

000
ASUS43 KMKX 192200
RWRWI

WISCONSIN REGIONAL WEATHER ROUNDUP
NATIONAL WEATHER SERVICE MILWAUKEE/SULLIVAN WI
500 PM CDT FRI SEP 19 2014

NOTE: "FAIR" INDICATES FEW OR NO CLOUDS BELOW 12,000 FEET WITH NO
SIGNIFICANT WEATHER AND/OR OBSTRUCTIONS TO VISIBILITY.

WIZ001-002-006>008-014>016-023>028-192300-
NORTHWEST WISCONSIN

CITY           SKY/WX    TMP DP  RH WIND       PRES   REMARKS
SUPERIOR ARPT  DRIZZLE   63  61  93 SW7       29.65F
ASHLAND        CLOUDY    66  57  72 S13G18    29.67F
HAYWARD        CLOUDY    66  58  75 S7        29.71F
SIREN          CLOUDY    67  60  78 CALM      29.69F
RICE LAKE      CLOUDY    70  57  64 S10       29.72F
LADYSMITH      CLOUDY    68  57  68 S15       29.77R
EAU CLAIRE     NOT AVBL
MENOMONIE      CLOUDY    74  58  56 S15       29.72S
NEW RICHMOND   CLOUDY    74  60  61 S10       29.69F
OSCEOLA        CLOUDY    71  63  77 CALM      29.71S
$$

WIZ003>005-009-010-017-018-192300-
NORTH CENTRAL WISCONSIN

CITY           SKY/WX    TMP DP  RH WIND       PRES   REMARKS
WOODRUFF       CLOUDY    67  54  62 S15G22    29.75S
RHINELANDER    PTSUNNY   66  52  60 SW10G29   29.77F
EAGLE RIVER    PTSUNNY   66  49  55 SW8G20    29.75F
LAND O LAKES   PTSUNNY   66  50  56 S12G22    29.75F
PHILLIPS       CLOUDY    66  55  66 S10G18    29.76R
TOMAHAWK       PTSUNNY   66  53  62 S7        29.77F
MEDFORD        PTSUNNY   67  53  59 S18G30    29.77S
MERRILL        MOSUNNY   68  54  60 S14G25    29.77F
$$

WIZ029-030-035-036-043>047-192300-
CENTRAL WISCONSIN

CITY           SKY/WX    TMP DP  RH WIND       PRES   REMARKS
WAUSAU         MOSUNNY   69  53  56 S22       29.77F
MOSINEE        MOSUNNY   70  54  56 S24G32    29.80F
MARSHFIELD     MOSUNNY   71  54  54 S25G36    29.77F
STEVENS POINT  MOSUNNY   71  51  49 S16G30    29.82F
WAUPACA        SUNNY     74  52  45 S17G23    29.86F
WAUTOMA        NOT AVBL
WISC RAPIDS    MOSUNNY   73  53  49 S16G36    29.82F
CAMP DOUGLAS   NOT AVBL
$$

WIZ011>013-019>022-031-037>040-048>050-192300-
NORTHEAST WISCONSIN

CITY           SKY/WX    TMP DP  RH WIND       PRES   REMARKS
ANTIGO         MOSUNNY   66  54  63 S17G26    29.81F
STURGEON BAY   PTSUNNY   61  54  77 S22G33    29.89R
GREEN BAY      MOSUNNY   72  51  47 S16G28    29.87F
MANITOWOC      NOT AVBL
APPLETON       PTSUNNY   72  48  43 S22       29.89F
CLINTONVILLE   MOSUNNY   72  50  46 S24       29.84F
OSHKOSH        MOSUNNY   71  50  47 S23G30    29.89F
$$

WIZ032>034-041-042-053>061-192300-
SOUTHWEST WISCONSIN

CITY           SKY/WX    TMP DP  RH WIND       PRES   REMARKS
LA CROSSE      SUNNY     76  56  49 S31G37    29.75F
SPARTA         SUNNY     74  52  46 S17G23    29.81F
VIROQUA        FAIR      73  53  50 S17G29    29.86F
BOSCOBEL       SUNNY     76  53  44 S15G23    29.88F
PRAIRIE DU CHI MOSUNNY   75  53  46 S7G20     29.87S
PLATTEVILLE    FAIR      73  52  46 S20G28    29.94F
$$

WIZ056-057-062-063-064-067-068-192300-
SOUTH CENTRAL WISCONSIN

CITY           SKY/WX    TMP DP  RH WIND       PRES   REMARKS
BARABOO/DELLS  SUNNY     73  50  43 S16G24    29.89S
LONE ROCK      NOT AVBL
WATERTOWN      MOSUNNY   72  48  43 S18G28    29.94F
MADISON        PTSUNNY   73  50  44 S21G29    29.92F
MIDDLETON      FAIR      74  47  38 S21G29    29.93F
MONROE         MOSUNNY   72  52  49 S15G24    29.96F
JANESVILLE     NOT AVBL
$$

WIZ051-052-058>065-066-070>072-192300-
SOUTHEAST WISCONSIN

CITY           SKY/WX    TMP DP  RH WIND       PRES   REMARKS
MILWAUKEE      PTSUNNY   70  51  51 S13       29.97F
WAUKESHA       SUNNY     70  48  46 S21       29.98
MILWAUKEE/TIMM SUNNY     72  45  37 S16G25    29.97F
RACINE         SUNNY     67  52  58 S16G23    30.00F
BURLINGTON     SUNNY     72  48  42 S10G21    29.98F
KENOSHA        SUNNY     72  47  40 S16G24    29.99F
FOND DU LAC    MOSUNNY   72  49  44 S22       29.91F
SHEBOYGAN      MOSUNNY   66  52  60 S17G31    29.94F
WEST BEND      MOSUNNY   70  46  43 S12G21    29.95F
JUNEAU         MOSUNNY   72  49  44 S21G30    29.95F
$$

LSZ147-162-192300-
LAKE SUPERIOR

STATION/POSITION TIME  TEMP    WIND        PRES    WAVE
                       AIR SEA DIR/SP/G            HT/PER
                 (UTC) (F)     (DEG/KT/KT) (MB)    (FT/S)
W MID LAKE BUOY  2050   53 47  210/  6/  8 1005.2F   2/ 5
DEVILS ISLAND    2100   60     170/  9/ 11 1003.9F
PORT WING        2140   64     180/  9/ 13 1004.1F
SAXON HARBOR     2100   68     230/  1/  6 1006.1R
$$

LMZ867-665-643>646-192300-
LAKE MICHIGAN

STATION/POSITION TIME  TEMP    WIND        PRES    WAVE
                       AIR SEA DIR/SP/G            HT/PER
                 (UTC) (F)     (DEG/KT/KT) (MB)    (FT/S)
N MID LAKE BUOY  2050   60 58  190/ 25/ 29 1012.4F   6/ 7
NORTHPORT PIER   2121   60     170/ 13     1011.2F
KEWAUNEE LAKESHO 2100   58     180/ 18/ 21 1012.7F
SHEBOYGAN LAKESH 2100   58 55  180/ 20/ 20 1014.5F
PORT WASHINGTON  2140   64     190/ 12/ 18 1014.9F
ATWATER BUOY     2100   62     160/ 19/ 25 1015.9F
MILWAUKEE LAKESH 2100   62     150/ 21/ 24   N/A
S MID LAKE BUOY  2050   65 65  160/ 14/ 16 1017.1F   3/ 5
KENOSHA   LAKESH 2100   65     180/ 14/ 20 1015.6F
$$

TC  - TEMPERATURE IN CELSIUS
VSB - VISIBILITY IN STATUTE MILES
WCI - WIND CHILL INDEX
HX  - HEAT INDEX



USA.gov is the U.S. government's official web portal to all federal, state and local government web resources and services.